Regional Weather Roundup
Issued by NWS

Home | Current Version | Previous Version | Graphics & Text | Print | Product List | Glossary On
Versions: 1 2 3 4 5 6 7 8 9 10 11 12 13 14 15 16 17 18 19 20 21 22 23 24 25 26 27 28 29 30 31 32 33 34 35 36 37 38 39 40 41 42 43 44 45 46 47 48 49 50
000
ASUS43 KIND 060809
RWRIN

WEATHER ROUNDUP FOR INDIANA
NATIONAL WEATHER SERVICE INDIANAPOLIS IN
300 AM EST FRI MAR 06 2015

NOTE: "FAIR" INDICATES FEW OR NO CLOUDS BELOW 12,000 FEET WITH NO
SIGNIFICANT WEATHER AND/OR OBSTRUCTIONS TO VISIBILITY.

* - STATION DOES NOT REPORT WEATHER SUCH AS PRECIPITATION OR FOG.

+ - STATION NOT QUALITY CONTROLLED BY THE NATIONAL WEATHER SERVICE.
    USE DATA WITH CAUTION...ESPECIALLY DEWPOINT AND RELATIVE
    HUMIDITY OBSERVATIONS.

INZ001>003-010>013-019-020-060900-
NORTHWEST INDIANA

CITY           SKY/WX    TMP DP  RH WIND       PRES   REMARKS
GARY /AIRPORT/ PTCLDY     8  -2  64 CALM      30.53F
KNOX *+          N/A      1 -13  51 S5        30.52F WCI  -8
LA PORTE +     MOCLDY     1  -4  79 CALM      30.51F
MICHIGAN CITY+ PTCLDY     5  -4  66 S3        30.52F
MONTICELLO +   MOCLDY    -1  -5  84 CALM      30.54F
RENSSELAER +   MOCLDY     0  -2  92 S5        30.54S WCI -10
VALPARAISO     MOCLDY     0  -5  79 CALM      30.51F

$$

LMZ046-743>745-060900-
SOUTHERN LAKE MICHIGAN

STATION/POSITION TIME  TEMP WIND        PRES
                       AIR  DIR/SP/G
                 (UTC) (F)  (DEG/KT/KT) (MB)
MICHIGAN CITY    0800    6  180/  9/  9   N/A

$$

INZ004-005-014>016-021>024-060900-
NORTH CENTRAL INDIANA

CITY           SKY/WX    TMP DP  RH WIND       PRES   REMARKS
GOSHEN         MOCLDY     1  -5  75 S6        30.51S WCI -10
LOGANSPORT +   PTCLDY    -2  -6  84 S5        30.54F WCI -12
PERU/GRISSOM   PTCLDY     0  -5  80 W2        30.52S
ROCHESTER +    PTCLDY     7   1  78 SW3       30.53S
SOUTH BEND     MOCLDY     1  -5  75 SW5       30.51F WCI  -9
WARSAW +       PTCLDY     5   0  78 CALM      30.51F

$$

INZ006>009-017-018-025>027-060900-
NORTHEAST INDIANA

CITY           SKY/WX    TMP DP  RH WIND       PRES   REMARKS
ANGOLA *+      CLEAR     -2  -6  84 CALM      30.48S
AUBURN +       PTCLDY     3   0  85 CALM      30.52S
FORT WAYNE     PTCLDY     2  -4  76 SW6       30.53S WCI  -9
HUNTINGTON +   PTCLDY     1  -5  73 CALM      30.53S

$$

INZ028-029-035-036-043>045-051>053-060900-
WEST CENTRAL INDIANA

CITY           SKY/WX    TMP DP  RH WIND       PRES   REMARKS
CRAWFORDSVL +  MOCLDY    -7 -13  74 CALM      30.54F
GREENCASTLE +  PTCLDY     3  -4  72 CALM      30.54F
LAFAYETTE      MOCLDY    -1  -5  82 CALM      30.56S
TERRE HAUTE    FAIR      -5  -9  83 CALM      30.58F

$$

INZ030>032-037>040-046>048-054>057-064-065-060900-
CENTRAL INDIANA

CITY           SKY/WX    TMP DP  RH WIND       PRES   REMARKS
CP ATTERBURY + PTCLDY     5   1  85 CALM      30.56F
FRANKFORT +    MOCLDY   -11 -15  80 CALM      30.55S
GREENWOOD *+   PTCLDY     3  -4  72 CALM      30.55F
INDIANAPOLIS   PTCLDY     5  -2  72 W3        30.53F
-EAGLE CREEK   PTCLDY     4  -1  80 W5        30.54F WCI  -5
KOKOMO *+        N/A    N/A N/A N/A MISG        N/A
MARION +       PTCLDY    -1  -6  80 CALM      30.53F
MT COMFORT *+  MOCLDY    -2 -11  65 CALM      30.53F
SHELBYVILLE    PTCLDY     3  -1  83 CALM      30.54F FOG
ZIONSVILLE +   PTCLDY    -1  -5  81 W3        30.54S

$$

INZ033-034-041-042-049-050-058-059-060900-
EAST CENTRAL INDIANA

CITY           SKY/WX    TMP DP  RH WIND       PRES   REMARKS
MUNCIE         PTCLDY     5   0  79 CALM      30.53S

$$

INZ060-061-067>069-081>083-085>088-060900-
SOUTHWEST INDIANA

CITY           SKY/WX    TMP DP  RH WIND       PRES   REMARKS
EVANSVILLE     PTCLDY     5   0  79 CALM      30.61S
HUNTINGBURG *+ MOCLDY     3  -2  78 N5        30.58S WCI  -6
WASHINGTON +   PTCLDY     5  -1  77 CALM      30.59S

$$

INZ062-063-066-070>080-084-089>092-060900-
SOUTH CENTRAL AND SOUTHEAST INDIANA

CITY           SKY/WX    TMP DP  RH WIND       PRES   REMARKS
BEDFORD +      PTCLDY     5   1  85 CALM      30.55
BLOOMINGTON    PTCLDY     2  -1  88 CALM      30.54F
NORTH VERNON + PTCLDY     7   5  92 CALM      30.56F
SEYMOUR +      PTCLDY     5   0  78 CALM      30.57F

$$




USA.gov is the U.S. government's official web portal to all federal, state and local government web resources and services.